Flag for U.S.A. Weather past 2 weeks in Garland, Texas, U.S.A.

57 °F


Feels Like: 57 °F
Forecast: 55 / 78 °F
Wind: No wind

Location: Mesquite Metro Airport

Current Time: Oct 4, 2015 at 6:23:06 AM

Latest Report: Oct 4, 2015 at 5:55 AM

Visibility: 10 mi

Pressure: 30.00 "Hg

Humidity: 77%

Dew point: 49 °F

Location of GarlandLocation

Historic Weather in Garland — Graph


Garland temperature yesterday

Maximum temperature yesterday: 79 °F (at 3:50 PM)
Minimum temperature yesterday: 53 °F (at 5:55 AM)
Average temperature yesterday: 65 °F

Past Weeks' High & Low Weather Summary

High102 °F (Sep 26, 6:50 PM)97% (Sep 20, 6:15 AM)30.14 "Hg (Sep 20, 6:15 AM)
Low53 °F (Oct 3, 5:55 AM)17% (Sep 26, 6:50 PM)29.81 "Hg (Sep 28, 4:50 PM)
Average74 °F61%29.99 "Hg
* Reported Sep 19 5:15 AM — Oct 4 5:15 AM, Garland, Weather by CustomWeather, © 2015

Note: Actual official high and low records may vary slightly from our data, if they occured in-between our weather recording intervals... More about our weather records


Garland weather history for previous 24 hours

Time TempWeatherWind HumidityBarometerVisibility
5:15 AM
Sun, Oct 4
58 °FClear.3 mph74%29.98 "Hg10 mi
4:55 AM58 °FClear.8 mph72%29.97 "Hg10 mi
4:35 AM59 °FClear.3 mph69%29.96 "Hg10 mi
4:15 AM60 °FClear.No wind68%29.96 "Hg10 mi
3:55 AM61 °FClear.6 mph66%29.95 "Hg10 mi
3:35 AM62 °FClear.5 mph62%29.95 "Hg10 mi
3:15 AM62 °FClear.6 mph63%29.95 "Hg10 mi
2:55 AM61 °FClear.6 mph64%29.94 "Hg10 mi
2:35 AM62 °FClear.5 mph64%29.94 "Hg10 mi
2:15 AM63 °FClear.3 mph60%29.93 "Hg10 mi
1:55 AM64 °FClear.3 mph58%29.94 "Hg10 mi
1:35 AM64 °FClear.5 mph59%29.94 "Hg10 mi
1:15 AM62 °FClear.5 mph62%29.94 "Hg10 mi
12:55 AM62 °FClear.5 mph61%29.94 "Hg10 mi
12:35 AM63 °FClear.No wind59%29.93 "Hg10 mi
12:15 AM63 °FClear.No wind58%29.93 "Hg10 mi
11:15 PM
Sat, Oct 3
65 °FClear.3 mph54%29.94 "Hg10 mi
10:55 PM65 °FClear.3 mph54%29.94 "Hg10 mi
10:35 PM67 °FClear.3 mph52%29.94 "Hg10 mi
9:55 PM68 °FClear.5 mph49%29.93 "Hg10 mi
9:35 PM68 °FClear.7 mph49%29.93 "Hg10 mi
9:15 PM69 °FClear.3 mph49%29.92 "Hg10 mi
8:55 PM69 °FClear.No wind48%29.91 "Hg10 mi
8:35 PM70 °FClear.3 mph47%29.90 "Hg10 mi
8:15 PM72 °FClear.5 mph44%29.90 "Hg10 mi
7:50 PM72 °FSunny.8 mph44%29.90 "Hg10 mi
6:50 PM73 °FSunny.8 mph38%29.89 "Hg10 mi
5:50 PM79 °FSunny.12 mph30%29.88 "Hg10 mi
4:50 PM79 °FSunny.10 mph28%29.87 "Hg10 mi
3:50 PM79 °FSunny.12 mph28%29.87 "Hg10 mi
2:50 PM77 °FSunny.8 mph32%29.90 "Hg10 mi
1:50 PM75 °FSunny.7 mph36%29.92 "Hg10 mi
12:50 PM73 °FSunny.6 mph38%29.94 "Hg10 mi
11:50 AM70 °FSunny.5 mph46%29.97 "Hg10 mi
10:50 AM68 °FSunny.5 mph49%29.99 "Hg10 mi
9:50 AM64 °FSunny.5 mph56%29.99 "Hg10 mi
8:50 AM57 °FSunny.No wind67%29.98 "Hg10 mi
7:50 AM54 °FClear.3 mph72%29.97 "Hg10 mi
6:47 AM54 °FClear.5 mph72%29.96 "Hg10 mi
6:15 AM54 °FClear.3 mph70%29.95 "Hg10 mi
Weather by CustomWeather, © 2015

See weather overviewHow to use our weather pages